Change the Weather History Date:

Sunday, January 12, 2014

  Actual Average Record
Temperature  
Mean Temperature 54 °F -  
Max Temperature 69 °F 46 °F 78 °F (2006)
Min Temperature 39 °F 26 °F -4 °F (1918)
Degree Days  
Heating Degree Days 11    
Growing Degree Days 4 (Base 50)    
Moisture  
Dew Point 36 °F    
Average Humidity 49    
Maximum Humidity 77    
Minimum Humidity 28    
Precipitation  
Precipitation 0.00 in - - ()
Sea Level Pressure  
Sea Level Pressure 29.81 in    
Wind  
Wind Speed 13 mph (South)    
Max Wind Speed 26 mph    
Max Gust Speed 38 mph    
Visibility 10 miles    
Events      
Averages and records for this station are not official NWS values.
T = Trace of Precipitation, MM = Missing Value Source: NWS Daily Summary

Daily Weather History Graph

Daily Weather History Graph

Search for Another Location

Airport or City:

Trip Planner

Search our weather history database for the weather conditions in past years. The results will help you decide how hot, cold, wet, or windy it might be!

Date:

Astronomy

Jan. 12, 2014 Rise Set
Actual Time 7:34 AM CST 5:36 PM CST
Civil Twilight 7:06 AM CST 6:03 PM CST
Nautical Twilight 6:35 AM CST 6:34 PM CST
Astronomical Twilight 6:05 AM CST 7:05 PM CST
Moon 3:03 PM CST (1/12) 4:35 AM CST (1/12)
Length of Visible Light 10h 56m
Length of Day
10h 01m
Waxing Gibbous, 90% of the Moon is Illuminated
Jan 12
Waxing Gibbous
Jan 15
Full
Jan 23
Last Quarter
Jan 30
New
Feb 6
First Quarter

Hourly Weather History & Observations

Time (CST) Temp. Windchill Dew Point Humidity Pressure Visibility Wind Dir Wind Speed Gust Speed Precip Events Conditions
12:15 AM 39.2 °F 35.9 °F 28.4 °F 65% 29.99 in 10.0 mi SSE 4.6 mph - N/A   Clear
12:35 AM 39.2 °F 35.0 °F 28.4 °F 65% 29.97 in 10.0 mi SSE 5.8 mph - N/A   Clear
12:55 AM 41.0 °F 35.2 °F 30.2 °F 65% 29.97 in 10.0 mi South 9.2 mph - N/A   Clear
1:15 AM 42.8 °F 37.5 °F 28.4 °F 57% 29.96 in 10.0 mi South 9.2 mph - N/A   Clear
1:35 AM 42.8 °F 38.0 °F 28.4 °F 57% 29.96 in 10.0 mi South 8.1 mph - N/A   Clear
1:55 AM 41.0 °F 35.2 °F 28.4 °F 61% 29.96 in 10.0 mi South 9.2 mph - N/A   Clear
2:15 AM 42.8 °F 37.0 °F 28.4 °F 57% 29.95 in 10.0 mi South 10.4 mph - N/A   Clear
2:35 AM 42.8 °F 37.5 °F 28.4 °F 57% 29.95 in 10.0 mi South 9.2 mph - N/A   Clear
2:55 AM 42.8 °F 38.0 °F 28.4 °F 57% 29.94 in 10.0 mi South 8.1 mph - N/A   Clear
3:15 AM 42.8 °F 37.5 °F 28.4 °F 57% 29.94 in 10.0 mi South 9.2 mph - N/A   Clear
3:35 AM 41.0 °F 36.4 °F 28.4 °F 61% 29.95 in 10.0 mi South 6.9 mph - N/A   Clear
3:55 AM 44.6 °F 39.2 °F 28.4 °F 53% 29.94 in 10.0 mi South 10.4 mph - N/A   Clear
4:15 AM 50.0 °F - 28.4 °F 43% 29.93 in 10.0 mi South 10.4 mph 18.4 mph N/A   Clear
4:35 AM 50.0 °F - 28.4 °F 43% 29.92 in 10.0 mi South 10.4 mph - N/A   Clear
4:55 AM 50.0 °F - 28.4 °F 43% 29.92 in 10.0 mi South 13.8 mph 19.6 mph N/A   Clear
5:15 AM 50.0 °F - 28.4 °F 43% 29.91 in 10.0 mi South 12.7 mph 18.4 mph N/A   Clear
5:35 AM 46.4 °F 41.5 °F 28.4 °F 50% 29.91 in 10.0 mi South 10.4 mph - N/A   Clear
5:55 AM 48.2 °F - 30.2 °F 50% 29.90 in 10.0 mi South 12.7 mph 18.4 mph N/A   Clear
6:15 AM 48.2 °F - 30.2 °F 50% 29.90 in 10.0 mi South 13.8 mph 20.7 mph N/A   Clear
6:35 AM 50.0 °F - 30.2 °F 47% 29.89 in 10.0 mi SSW 15.0 mph 21.9 mph N/A   Clear
6:55 AM 48.2 °F - 32.0 °F 54% 29.89 in 10.0 mi SSW 15.0 mph 20.7 mph N/A   Clear
7:15 AM 46.4 °F 40.1 °F 32.0 °F 57% 29.89 in 10.0 mi South 15.0 mph 20.7 mph N/A   Clear
7:35 AM 46.4 °F 40.4 °F 32.0 °F 57% 29.89 in 10.0 mi South 13.8 mph - N/A   Clear
7:55 AM 46.4 °F 41.5 °F 32.0 °F 57% 29.90 in 10.0 mi South 10.4 mph - N/A   Clear
8:15 AM 46.4 °F 40.7 °F 32.0 °F 57% 29.89 in 10.0 mi South 12.7 mph 21.9 mph N/A   Clear
8:35 AM 46.4 °F 39.8 °F 32.0 °F 57% 29.90 in 10.0 mi South 16.1 mph - N/A   Clear
8:55 AM 50.0 °F - 32.0 °F 50% 29.89 in 10.0 mi South 16.1 mph 21.9 mph N/A   Clear
9:15 AM 51.8 °F - 32.0 °F 47% 29.89 in 10.0 mi South 16.1 mph 21.9 mph N/A   Clear
9:35 AM 53.6 °F - 32.0 °F 44% 29.89 in 10.0 mi South 17.3 mph 24.2 mph N/A   Clear
9:55 AM 57.2 °F - 32.0 °F 38% 29.89 in 10.0 mi South 20.7 mph 31.1 mph N/A   Clear
10:15 AM 59.0 °F - 32.0 °F 36% 29.89 in 10.0 mi South 18.4 mph 26.5 mph N/A   Clear
10:35 AM 60.8 °F - 32.0 °F 34% 29.87 in 10.0 mi South 23.0 mph 33.4 mph N/A   Clear
10:55 AM 62.6 °F - 32.0 °F 32% 29.86 in 10.0 mi South 25.3 mph 34.5 mph N/A   Clear
11:15 AM 62.6 °F - 33.8 °F 34% 29.85 in 10.0 mi SSW 20.7 mph 27.6 mph N/A   Clear
11:35 AM 64.4 °F - 33.8 °F 32% 29.84 in 10.0 mi SSW 20.7 mph 38.0 mph N/A   Clear
11:55 AM 64.4 °F - 33.8 °F 32% 29.82 in 10.0 mi SSW 26.5 mph 36.8 mph N/A   Clear
12:15 PM 64.4 °F - 33.8 °F 32% 29.80 in 10.0 mi SSW 26.5 mph 33.4 mph N/A   Clear
12:35 PM 66.2 °F - 35.6 °F 32% 29.78 in 10.0 mi SSW 18.4 mph 33.4 mph N/A   Clear
12:55 PM 66.2 °F - 35.6 °F 32% 29.77 in 10.0 mi SSW 21.9 mph 34.5 mph N/A   Clear
1:15 PM 68.0 °F - 35.6 °F 30% 29.75 in 10.0 mi SSW 20.7 mph 31.1 mph N/A   Clear
1:35 PM 68.0 °F - 35.6 °F 30% 29.73 in 10.0 mi SSW 23.0 mph 33.4 mph N/A   Clear
1:55 PM 68.0 °F - 35.6 °F 30% 29.73 in 10.0 mi SSW 19.6 mph 38.0 mph N/A   Clear
2:15 PM 69.8 °F - 35.6 °F 28% 29.72 in 10.0 mi SSW 21.9 mph 31.1 mph N/A   Clear
2:35 PM 69.8 °F - 35.6 °F 28% 29.70 in 10.0 mi SSW 20.7 mph 29.9 mph N/A   Clear
2:55 PM 69.8 °F - 35.6 °F 28% 29.70 in 10.0 mi South 20.7 mph 28.8 mph N/A   Clear
3:15 PM 69.8 °F - 35.6 °F 28% 29.70 in 10.0 mi South 19.6 mph 26.5 mph N/A   Clear
3:35 PM 69.8 °F - 37.4 °F 31% 29.70 in 10.0 mi SSW 18.4 mph 27.6 mph N/A   Clear
3:55 PM 69.8 °F - 37.4 °F 31% 29.70 in 10.0 mi South 25.3 mph 31.1 mph N/A   Clear
4:15 PM 69.8 °F - 37.4 °F 31% 29.69 in 10.0 mi SSW 20.7 mph 31.1 mph N/A   Clear
4:35 PM 68.0 °F - 37.4 °F 33% 29.69 in 10.0 mi South 16.1 mph 28.8 mph N/A   Clear
4:55 PM 66.2 °F - 37.4 °F 35% 29.68 in 10.0 mi South 18.4 mph 26.5 mph N/A   Clear
5:15 PM 64.4 °F - 37.4 °F 37% 29.68 in 10.0 mi South 17.3 mph 25.3 mph N/A   Clear
5:35 PM 62.6 °F - 39.2 °F 42% 29.68 in 10.0 mi SSE 19.6 mph 24.2 mph N/A   Clear
5:55 PM 62.6 °F - 37.4 °F 39% 29.68 in 10.0 mi South 19.6 mph 24.2 mph N/A   Clear
6:15 PM 62.6 °F - 39.2 °F 42% 29.68 in 10.0 mi SSE 19.6 mph 28.8 mph N/A   Clear
6:35 PM 60.8 °F - 41.0 °F 48% 29.69 in 10.0 mi South 20.7 mph 28.8 mph N/A   Clear
6:55 PM 60.8 °F - 41.0 °F 48% 29.70 in 10.0 mi SSE 19.6 mph 24.2 mph N/A   Clear
7:15 PM 60.8 °F - 42.8 °F 52% 29.70 in 10.0 mi SSE 16.1 mph 24.2 mph N/A   Clear
7:35 PM 59.0 °F - 42.8 °F 55% 29.69 in 10.0 mi SSE 17.3 mph 21.9 mph N/A   Clear
7:55 PM 59.0 °F - 44.6 °F 59% 29.69 in 10.0 mi South 19.6 mph 26.5 mph N/A   Clear
8:15 PM 59.0 °F - 44.6 °F 59% 29.70 in 10.0 mi South 19.6 mph 25.3 mph N/A   Clear
8:35 PM 59.0 °F - 46.4 °F 63% 29.69 in 10.0 mi South 19.6 mph 25.3 mph N/A   Clear
8:55 PM 57.2 °F - 46.4 °F 67% 29.69 in 10.0 mi South 17.3 mph 26.5 mph N/A   Clear
9:15 PM 59.0 °F - 48.2 °F 67% 29.70 in 10.0 mi South 19.6 mph 25.3 mph N/A   Clear
9:35 PM 59.0 °F - 50.0 °F 72% 29.69 in 10.0 mi South 17.3 mph 23.0 mph N/A   Clear
9:55 PM 59.0 °F - 50.0 °F 72% 29.70 in 10.0 mi SSW 17.3 mph 25.3 mph N/A   Clear
10:15 PM 59.0 °F - 50.0 °F 72% 29.70 in 10.0 mi SSW 17.3 mph 21.9 mph N/A   Clear
10:35 PM 59.0 °F - 50.0 °F 72% 29.69 in 10.0 mi SSW 17.3 mph 23.0 mph N/A   Clear
10:55 PM 59.0 °F - 50.0 °F 72% 29.69 in 10.0 mi SSW 18.4 mph 24.2 mph N/A   Clear
11:15 PM 59.0 °F - 50.0 °F 72% 29.72 in 10.0 mi SW 12.7 mph 19.6 mph N/A   Clear
11:35 PM 57.2 °F - 50.0 °F 77% 29.76 in 10.0 mi West 11.5 mph - N/A   Clear
11:55 PM 55.4 °F - 48.2 °F 77% 29.76 in 10.0 mi WSW 10.4 mph 17.3 mph N/A   Clear